Location: Kalwaria Zebrzydowska
(49.8686°N, 19.6647°E)
Time: 22:11:06
(UTC+02:00)

ISS - Pass Details

Date: 28 January 2019
Orbit: 411 x 421 km, 51.6° (Epoch: 21 October)

Event Time Altitude Azimuth Distance (km) Brightness Sun altitude
Rises 17:36:34 0° 251° (WSW) 2,410 2.3 -11.0°
Maximum altitude 17:42:09 88° 162° (SSE) 444 -3.7 -11.9°
Enters shadow 17:44:24 21° 74° (ENE) 1,056 -2.4 -12.2°
